Wind_Speed
6 9 11 6 4 5 2 5 3 11 8 9 9 7 9 5 5 5 2 5 5 4 7 13 14 15 17 17 17 16 16 14 17 16 18 17 16 16 17 19 22 22 21 18 16 16 16 15 15
8 9 5 3 5 3 1 4 8 2 12 18 4 5 7 3 8 8 1 7 6 3 1 13 16 16 17 17 16 16 15 14 16 15 16 16 15 16 17 22 23 23 18 16 16 15 14 13 12
7 5 3 4 3 2 4 6 6 6 16 21 9 8 6 4 7 3 6 4 4 0 4 10 16 18 17 17 18 17 15 15 16 14 14 14 14 19 23 26 23 16 12 11 12 13 13 13 14
5 3 4 4 7 6 5 2 1 10 13 25 19 6 5 8 3 3 6 6 3 3 5 8 16 20 21 20 18 18 16 16 16 17 14 15 18 23 24 19 16 12 10 9 9 11 13 16 17
6 3 4 4 6 3 0 3 13 6 4 15 14 9 6 11 6 7 4 4 1 3 5 7 11 20 21 20 19 19 18 18 17 16 15 16 19 22 21 17 13 13 13 8 7 10 16 20 18
4 2 5 3 4 3 3 15 18 13 12 15 6 10 3 7 7 13 11 7 4 3 6 7 9 16 26 22 22 23 21 20 20 17 17 17 19 19 17 16 15 12 8 5 8 13 19 19 18
6 4 3 4 3 4 5 7 12 6 13 10 13 7 5 1 21 23 21 16 10 8 7 10 11 14 19 26 25 26 26 25 23 21 20 18 17 17 17 16 14 8 5 5 10 17 23 18 19
4 4 3 4 2 2 5 5 12 14 5 15 18 5 13 23 22 21 20 18 17 14 11 14 15 17 18 20 21 22 26 29 25 24 22 21 20 19 18 15 12 8 6 5 12 19 21 20 18
4 5 3 2 4 5 11 8 12 9 13 15 23 18 24 22 24 24 20 20 19 16 14 14 19 19 20 21 19 19 20 19 26 26 25 23 22 19 18 17 14 11 8 10 16 21 20 19 17
6 4 1 1 1 1 5 9 9 7 23 18 32 22 22 22 23 22 20 19 19 17 18 17 20 22 23 23 20 21 22 21 22 24 27 28 25 23 17 18 15 13 11 15 19 23 22 20 19
2 3 2 2 1 2 4 24 16 12 7 16 23 33 32 28 25 22 17 16 16 18 18 17 21 24 25 28 25 24 25 23 20 22 22 21 22 23 23 20 16 15 13 20 20 20 22 18 19
4 3 1 1 4 4 5 4 9 17 8 19 26 27 31 29 23 23 17 14 14 14 16 18 18 24 28 30 28 26 27 25 24 22 22 22 22 20 19 19 18 17 18 24 21 20 24 21 19
3 2 3 3 15 15 16 16 5 22 30 28 32 33 34 29 20 14 14 19 15 15 15 19 21 26 32 32 32 28 28 26 24 21 23 23 25 23 22 22 24 23 21 25 22 15 25 24 21
1 7 2 1 7 4 9 8 4 23 36 38 36 35 32 26 15 13 11 12 20 22 18 19 20 25 30 35 32 30 30 28 25 24 24 24 24 25 24 22 23 25 24 25 22 15 24 20 20
2 3 4 3 3 5 1 7 8 23 25 27 28 31 31 18 8 7 12 14 15 23 20 20 21 23 31 38 33 33 33 31 27 26 24 23 22 21 21 23 24 26 26 25 23 21 17 18 21
5 4 3 3 1 8 6 1 9 28 26 27 33 38 35 16 16 15 18 16 14 19 17 20 22 23 32 34 36 36 34 33 29 26 24 22 20 19 20 24 25 26 25 25 27 24 21 21 21
6 1 2 4 6 1 7 4 11 24 24 27 32 36 37 32 16 16 19 18 11 11 14 22 21 21 29 34 40 37 36 36 29 24 22 21 20 20 21 24 24 24 26 25 27 24 22 23 22
3 3 4 4 1 9 10 3 6 18 22 25 31 34 36 32 27 24 16 15 7 7 9 16 16 18 24 26 43 39 40 34 28 24 21 19 21 20 21 26 26 25 26 25 30 25 24 22 21
4 3 4 3 6 6 4 2 5 13 23 27 30 33 35 36 26 21 18 21 11 2 8 9 10 18 19 24 32 43 29 31 29 24 19 17 18 19 22 23 28 27 25 23 29 28 25 23 22
1 2 2 5 6 6 3 1 2 7 15 18 23 31 35 38 37 27 26 25 25 24 18 7 12 5 15 23 27 25 31 26 23 21 17 14 13 16 20 21 29 30 27 25 19 22 23 24 25
2 2 2 4 5 5 7 3 2 4 16 20 24 23 30 31 35 34 30 28 25 24 30 24 20 18 14 17 14 18 14 16 17 15 12 12 15 15 17 17 18 31 28 27 25 25 23 25 25
2 5 2 2 1 2 5 4 3 2 7 14 22 24 25 28 31 34 34 33 30 26 27 22 18 19 16 14 7 8 6 7 7 8 8 9 14 16 15 18 21 25 23 29 31 30 30 28 28
6 5 4 3 2 2 3 3 3 2 4 6 15 19 20 23 26 31 32 31 34 34 29 25 20 20 17 18 14 9 7 5 4 5 4 3 8 10 13 15 18 22 25 26 28 29 28 33 32
6 1 3 3 2 1 4 4 3 2 3 2 8 15 19 21 24 27 27 31 30 29 31 32 24 18 14 9 10 15 12 7 7 7 5 3 4 7 9 12 14 16 19 23 26 28 29 31 34
7 4 2 3 2 4 1 3 3 4 3 4 4 11 15 19 23 25 29 31 30 31 30 28 26 25 21 19 15 15 11 7 10 9 7 5 5 6 6 8 9 12 16 19 20 21 24 28 33
3 2 3 3 2 3 2 4 3 4 9 7 9 9 13 18 21 24 25 26 26 27 26 25 24 24 21 19 18 18 12 11 9 10 10 15 18 19 12 14 11 13 13 17 20 23 24 25 28
1 2 1 1 1 1 1 2 1 4 4 5 5 9 12 15 18 20 21 24 24 24 24 24 22 21 19 18 18 15 11 8 5 6 5 9 12 16 21 24 25 25 18 16 17 19 23 27 29
2 3 1 2 1 3 2 3 4 11 8 5 5 7 9 10 14 16 18 19 20 20 19 18 20 21 19 17 15 13 11 9 7 5 3 4 6 7 7 8 14 21 32 30 28 26 24 25 25
3 1 1 2 3 2 3 4 3 12 9 8 8 5 6 9 11 12 14 16 16 17 18 19 17 15 15 17 16 14 13 12 10 9 8 8 7 8 11 13 14 15 15 18 25 31 35 34 33
1 2 2 2 3 2 2 4 2 8 14 17 13 9 4 5 7 9 12 13 14 17 18 18 18 17 17 15 15 16 15 13 13 14 14 14 13 13 14 14 16 16 16 21 21 23 28 26 25
Wind_Direction
123 134 132 101 65 65 14 351 280 21 357 349 348 95 107 69 49 117 73 36 61 122 159 181 181 180 173 171 165 170 171 165 154 159 161 164 163 160 153 148 142 137 133 140 129 131 135 139 140
107 132 100 93 85 81 47 320 29 355 14 17 22 44 43 72 78 101 26 28 87 153 157 198 193 191 175 180 176 170 168 166 166 163 164 167 167 166 160 150 146 141 141 138 133 139 140 142 147
112 98 78 91 93 76 111 335 339 356 40 22 355 41 38 20 60 75 41 34 104 22 161 198 198 186 193 181 180 176 166 166 170 171 173 170 169 164 156 153 154 143 134 135 140 149 151 151 149
113 83 67 77 94 354 113 279 312 5 19 28 3 34 340 15 18 57 20 19 150 163 180 207 207 196 195 199 187 185 179 178 172 172 174 167 165 164 162 162 152 147 140 143 151 154 156 150 148
94 66 64 85 86 133 330 79 55 53 30 11 28 338 19 62 62 36 18 47 172 191 213 223 220 206 201 197 198 193 190 190 182 177 180 170 167 166 167 165 163 149 137 135 151 159 155 149 140
86 87 68 106 103 130 6 37 39 45 18 19 22 359 22 54 15 26 4 326 293 264 247 225 245 222 211 202 199 195 192 192 192 185 189 179 180 176 174 173 167 164 165 158 167 164 157 149 139
93 76 60 99 359 58 7 9 39 25 16 14 357 337 340 42 326 314 323 322 315 280 233 227 243 222 210 205 205 202 197 195 195 191 192 192 190 188 187 182 180 180 167 158 168 165 156 152 152
82 84 41 38 329 124 346 27 7 16 3 2 8 357 312 324 326 323 306 306 297 293 263 223 234 223 208 214 209 205 204 200 197 197 197 194 192 197 194 194 195 186 169 167 166 160 155 158 160
42 59 55 6 35 309 359 8 3 9 26 17 354 354 320 320 318 307 304 287 285 272 274 249 227 225 212 212 219 196 192 199 201 203 204 202 194 191 193 195 190 176 160 172 159 159 163 162 163
63 97 167 102 164 315 339 19 353 21 37 358 341 326 329 311 310 310 292 281 271 277 264 247 233 223 216 205 204 200 195 196 199 201 207 213 208 205 197 190 189 184 172 183 162 162 171 172 162
81 131 182 197 124 57 35 71 64 36 25 351 323 329 323 315 300 303 296 265 261 269 262 248 236 227 218 208 206 201 197 200 203 198 202 202 211 211 208 200 192 192 184 186 166 165 177 176 173
93 57 322 313 359 101 39 88 88 56 348 329 326 327 317 303 300 292 287 274 267 258 250 250 242 235 228 207 210 206 199 200 196 200 198 200 199 193 192 196 194 192 206 189 171 187 182 179 180
72 307 341 32 104 98 80 46 109 14 352 342 339 330 323 301 284 290 288 275 250 243 248 257 252 237 223 215 209 207 201 197 200 203 202 199 203 195 196 199 203 196 200 188 187 189 181 189 187
219 317 283 83 64 104 88 39 91 348 354 349 342 332 322 305 279 295 299 279 257 257 241 249 251 238 221 210 211 211 205 199 201 199 202 204 205 207 210 209 195 191 194 190 188 181 186 187 195
6 70 34 353 2 153 117 33 20 347 350 342 342 343 334 315 297 324 319 285 265 254 259 239 246 243 233 212 210 209 203 200 201 203 205 207 207 210 215 200 193 192 194 192 185 181 183 183 196
55 40 359 302 207 11 148 47 335 0 348 347 356 349 360 16 7 355 341 304 256 240 247 242 241 246 227 211 213 211 203 201 203 208 211 210 212 212 211 200 198 197 193 196 189 184 194 198 201
15 266 300 327 20 123 45 60 339 358 352 1 6 3 6 18 28 6 358 347 276 243 235 234 231 243 229 226 221 214 207 200 198 207 206 208 208 211 210 202 200 198 196 193 186 192 198 205 209
283 311 279 243 183 60 80 124 331 357 5 12 10 10 15 20 19 19 18 21 334 269 253 223 218 236 232 222 222 213 205 197 196 200 203 209 208 212 213 210 207 201 204 200 198 199 199 216 216
225 207 242 264 163 86 95 126 314 354 15 16 9 8 12 17 14 31 44 52 44 178 248 215 209 225 223 226 204 207 201 194 191 191 194 205 214 219 218 211 215 211 210 204 202 206 211 208 212
120 157 288 285 131 87 191 226 277 353 26 14 18 11 7 21 27 26 46 54 63 68 86 157 201 210 198 200 208 197 182 186 184 180 183 196 214 220 210 215 216 215 216 213 210 212 208 215 215
344 167 250 222 340 65 128 342 310 63 27 14 20 24 21 13 18 27 47 54 59 65 84 102 101 97 96 102 144 156 145 165 177 165 177 195 199 208 219 214 224 224 214 220 222 221 220 222 225
299 217 246 228 81 245 172 276 279 175 30 19 12 17 21 23 26 31 40 56 61 65 77 98 105 104 88 80 93 129 160 175 174 159 192 209 222 221 223 225 217 216 229 233 233 232 235 234 229
237 162 230 228 183 7 207 97 205 18 332 12 13 20 28 35 36 35 40 48 57 66 71 82 85 110 121 119 124 126 174 115 191 146 101 336 253 235 240 243 248 248 241 237 239 242 242 233 235
287 26 68 58 94 10 229 137 241 243 264 22 18 37 38 42 44 49 47 50 57 52 62 68 72 67 91 118 118 133 133 123 116 115 173 93 274 246 243 246 246 245 242 243 245 245 243 237 235
28 35 357 354 358 228 157 62 262 159 158 141 74 40 40 44 48 48 46 50 55 54 56 58 66 74 74 85 105 133 135 176 206 198 205 207 239 243 230 240 246 257 260 255 250 247 245 242 243
332 131 146 266 239 282 13 249 310 159 147 120 91 65 46 44 47 48 49 51 52 54 58 62 61 64 66 65 71 84 93 112 139 169 179 203 221 233 259 271 265 262 261 259 256 253 250 248 249
358 6 216 173 295 3 167 328 349 163 163 134 91 70 49 44 42 44 48 49 49 48 48 51 58 63 63 62 69 70 74 68 63 72 111 169 197 213 231 239 245 250 265 266 268 264 260 256 253
194 164 351 1 277 268 254 261 250 195 192 173 141 92 72 51 43 42 41 42 44 48 48 47 43 45 47 46 49 48 50 51 49 36 2 301 274 269 258 229 235 234 240 251 263 272 274 271 266
343 316 203 173 174 255 301 254 226 194 174 169 160 127 90 65 50 43 42 41 41 40 40 40 40 35 31 29 29 25 22 19 9 357 346 327 313 294 285 275 267 251 237 237 244 253 256 261 259
237 302 103 119 291 275 233 266 11 139 155 162 156 142 110 62 48 35 31 29 30 32 31 28 28 26 24 17 11 8 6 358 349 343 338 330 322 312 302 292 286 278 266 257 257 256 259 264 261
Height
1518 1518 1519 1520 1532 1537 1541 1536 1529 1524 1521 1517 1516 1513 1515 1516 1520 1531 1525 1524 1525 1526 1528 1529 1530 1531 1532 1533 1535 1537 1538 1540 1541 1542 1543 1544 1545 1547 1547 1550 1551 1553 1554 1556 1557 1558 1559 1560 1561
1518 1519 1520 1520 1539 1546 1545 1535 1531 1527 1524 1517 1516 1517 1515 1521 1520 1523 1524 1525 1526 1527 1528 1529 1531 1532 1533 1535 1535 1537 1539 1540 1541 1543 1543 1545 1546 1547 1548 1551 1552 1554 1555 1557 1558 1560 1560 1561 1562
1519 1519 1521 1526 1542 1545 1545 1536 1533 1526 1523 1520 1517 1518 1518 1523 1523 1524 1524 1526 1527 1528 1529 1530 1531 1533 1533 1535 1537 1537 1538 1540 1541 1543 1544 1545 1546 1547 1549 1550 1552 1554 1556 1558 1559 1561 1561 1561 1562
1519 1521 1524 1535 1541 1542 1539 1537 1532 1527 1523 1524 1522 1525 1526 1526 1524 1525 1525 1526 1527 1528 1529 1531 1532 1533 1534 1535 1536 1538 1539 1541 1542 1543 1545 1546 1546 1548 1549 1551 1553 1555 1556 1558 1560 1561 1562 1562 1563
1519 1521 1532 1539 1539 1540 1537 1534 1532 1531 1530 1529 1527 1529 1529 1527 1527 1526 1526 1526 1527 1528 1529 1529 1531 1532 1534 1535 1536 1538 1539 1541 1542 1544 1545 1546 1547 1548 1550 1552 1554 1555 1557 1559 1560 1561 1563 1564 1565
1520 1522 1538 1544 1539 1537 1536 1535 1532 1532 1531 1530 1529 1529 1529 1529 1528 1527 1527 1527 1527 1527 1528 1528 1529 1531 1532 1534 1535 1537 1539 1540 1542 1544 1545 1546 1547 1548 1550 1552 1554 1556 1557 1558 1560 1562 1564 1566 1568
1522 1528 1536 1537 1540 1539 1538 1534 1533 1532 1530 1531 1531 1529 1529 1529 1529 1527 1527 1527 1526 1526 1527 1527 1528 1528 1530 1532 1533 1535 1537 1539 1540 1542 1544 1546 1548 1549 1550 1552 1553 1556 1557 1558 1560 1562 1565 1567 1569
1523 1527 1539 1542 1543 1540 1537 1534 1534 1531 1531 1531 1531 1530 1528 1527 1527 1526 1525 1524 1524 1524 1524 1525 1526 1526 1527 1529 1530 1533 1535 1538 1540 1541 1543 1545 1547 1548 1550 1551 1553 1556 1557 1558 1560 1563 1566 1568 1569
1526 1539 1545 1539 1538 1538 1534 1532 1532 1532 1531 1530 1533 1532 1528 1524 1523 1522 1522 1521 1521 1521 1521 1522 1523 1523 1524 1526 1528 1531 1533 1536 1538 1540 1541 1543 1546 1547 1549 1551 1553 1555 1557 1559 1560 1563 1566 1569 1571
1529 1543 1538 1536 1535 1536 1534 1535 1533 1533 1533 1533 1528 1525 1525 1521 1520 1518 1517 1516 1516 1517 1517 1519 1519 1520 1522 1524 1526 1528 1531 1533 1535 1538 1539 1542 1544 1546 1548 1550 1553 1555 1557 1559 1560 1563 1565 1568 1571
1532 1539 1536 1535 1534 1533 1535 1537 1537 1536 1537 1540 1536 1525 1521 1519 1515 1514 1512 1511 1511 1512 1513 1515 1516 1518 1519 1521 1523 1525 1528 1531 1533 1536 1538 1541 1543 1544 1546 1549 1552 1554 1557 1559 1560 1563 1565 1569 1571
1535 1535 1534 1533 1533 1533 1535 1535 1539 1541 1545 1540 1533 1527 1519 1514 1512 1508 1507 1507 1507 1506 1508 1510 1513 1514 1515 1516 1520 1522 1525 1528 1531 1534 1536 1540 1541 1543 1544 1547 1550 1553 1556 1558 1560 1563 1565 1568 1570
1535 1534 1533 1533 1533 1535 1534 1536 1537 1539 1537 1534 1527 1520 1513 1507 1505 1504 1502 1502 1503 1502 1504 1506 1508 1509 1511 1514 1517 1519 1522 1525 1528 1532 1535 1538 1540 1543 1544 1546 1549 1552 1554 1558 1559 1562 1564 1566 1569
1535 1533 1532 1533 1533 1534 1535 1538 1538 1539 1533 1527 1522 1515 1509 1502 1499 1498 1497 1497 1498 1498 1499 1502 1503 1505 1506 1508 1512 1516 1520 1523 1527 1530 1533 1537 1539 1541 1543 1545 1547 1551 1553 1556 1559 1561 1563 1566 1568
1535 1535 1534 1534 1534 1536 1534 1540 1549 1546 1540 1533 1523 1512 1502 1497 1497 1496 1495 1493 1493 1493 1495 1496 1499 1501 1502 1506 1510 1513 1516 1521 1524 1528 1532 1535 1538 1540 1542 1544 1547 1549 1552 1555 1558 1560 1563 1566 1567
1537 1539 1545 1536 1535 1536 1535 1549 1552 1546 1540 1533 1524 1512 1501 1499 1498 1495 1493 1489 1488 1487 1489 1491 1493 1497 1499 1499 1506 1509 1512 1517 1521 1524 1529 1532 1536 1539 1541 1543 1546 1548 1551 1553 1556 1558 1560 1564 1566
1546 1548 1542 1539 1535 1535 1538 1554 1552 1549 1541 1534 1524 1516 1508 1500 1497 1496 1492 1487 1485 1485 1485 1485 1488 1493 1496 1499 1502 1505 1509 1513 1517 1521 1525 1529 1533 1537 1539 1542 1545 1547 1549 1551 1553 1555 1558 1561 1563
1549 1548 1543 1542 1540 1540 1549 1554 1552 1549 1542 1536 1527 1520 1513 1507 1503 1498 1492 1487 1483 1484 1483 1484 1484 1490 1493 1498 1499 1503 1506 1509 1514 1518 1522 1526 1530 1534 1537 1540 1543 1546 1548 1549 1551 1554 1556 1559 1561
1543 1544 1545 1537 1537 1545 1551 1553 1551 1548 1542 1536 1532 1525 1518 1513 1508 1499 1493 1486 1483 1481 1482 1482 1484 1488 1492 1497 1490 1499 1496 1508 1512 1516 1519 1523 1527 1530 1534 1538 1541 1543 1545 1548 1549 1551 1554 1555 1558
1539 1539 1540 1537 1536 1543 1552 1552 1551 1549 1545 1543 1537 1530 1523 1515 1507 1502 1496 1491 1486 1481 1482 1482 1486 1488 1492 1495 1496 1498 1496 1506 1513 1514 1516 1520 1524 1528 1531 1535 1538 1540 1543 1544 1547 1549 1551 1553 1555
1543 1542 1540 1541 1536 1542 1550 1551 1548 1550 1548 1544 1540 1537 1530 1524 1516 1510 1500 1496 1491 1488 1483 1486 1487 1489 1493 1492 1493 1498 1503 1509 1510 1512 1514 1519 1523 1526 1530 1533 1536 1537 1540 1543 1544 1546 1548 1550 1552
1544 1539 1539 1539 1540 1545 1542 1552 1548 1550 1551 1547 1544 1541 1535 1529 1520 1515 1509 1496 1497 1495 1487 1491 1492 1490 1492 1494 1500 1504 1509 1512 1511 1510 1515 1519 1523 1524 1528 1531 1534 1537 1538 1540 1542 1544 1545 1547 1548
1538 1535 1537 1537 1540 1541 1538 1549 1546 1549 1551 1549 1547 1545 1540 1535 1529 1519 1515 1511 1505 1500 1495 1495 1496 1496 1499 1501 1505 1502 1510 1512 1512 1511 1514 1518 1522 1524 1526 1529 1531 1533 1535 1537 1539 1541 1541 1543 1544
1534 1534 1536 1540 1543 1553 1533 1539 1545 1552 1551 1550 1549 1545 1542 1538 1533 1530 1525 1517 1511 1508 1502 1500 1499 1500 1503 1507 1506 1505 1508 1512 1512 1511 1511 1514 1521 1524 1524 1527 1529 1530 1532 1533 1535 1535 1536 1537 1539
1537 1540 1547 1547 1552 1546 1537 1542 1542 1548 1550 1551 1551 1548 1545 1541 1537 1532 1526 1521 1520 1515 1513 1512 1511 1509 1510 1509 1507 1508 1508 1512 1515 1514 1517 1519 1522 1523 1523 1525 1525 1527 1529 1530 1530 1530 1531 1532 1533
1542 1543 1553 1543 1545 1543 1538 1538 1544 1547 1549 1550 1549 1549 1547 1543 1540 1537 1533 1530 1525 1522 1522 1521 1517 1515 1512 1512 1512 1512 1515 1516 1514 1514 1514 1517 1519 1520 1518 1522 1523 1524 1524 1525 1525 1525 1526 1527 1527
1540 1548 1543 1546 1546 1550 1547 1553 1549 1551 1551 1551 1551 1550 1549 1546 1543 1540 1537 1534 1531 1527 1525 1524 1524 1522 1520 1523 1519 1519 1518 1518 1517 1516 1515 1516 1514 1514 1516 1516 1517 1519 1520 1521 1521 1521 1521 1520 1520
1538 1540 1546 1552 1542 1538 1541 1547 1539 1547 1549 1550 1551 1551 1550 1549 1545 1542 1539 1536 1535 1534 1532 1530 1526 1524 1524 1523 1522 1521 1520 1520 1518 1518 1516 1516 1514 1512 1512 1511 1511 1510 1512 1515 1515 1515 1515 1514 1514
1542 1541 1541 1545 1548 1541 1541 1529 1532 1537 1543 1548 1550 1550 1550 1548 1546 1544 1542 1541 1539 1537 1535 1532 1531 1530 1528 1526 1525 1524 1521 1519 1518 1518 1516 1515 1512 1509 1509 1509 1508 1508 1507 1506 1507 1508 1508 1507 1506
1538 1539 1541 1547 1545 1549 1549 1532 1531 1534 1540 1544 1547 1549 1549 1548 1547 1545 1543 1541 1539 1537 1535 1533 1531 1530 1527 1527 1524 1523 1521 1520 1518 1517 1515 1513 1510 1507 1506 1504 1503 1501 1500 1501 1501 1500 1500 1498 1496